Tracking 30313 objects as of 21-Apr-2025
HD Live streaming from Space Station
objects crossing your sky now

COSMOS 505

Track COSMOS 505 now!
10-day predictions
COSMOS 505 is classified as:


NORAD ID: 6118
Int'l Code: 1972-057B
Perigee: 1,359.0 km
Apogee: 1,502.7 km
Inclination: 74.0 °
Period: 114.3 minutes
Semi major axis: 7801 km
RCS: 0.7076 m2 (medium)
Launch date: July 20, 1972
Source: Commonwealth of Independent States (former USSR) (CIS)
Launch site: PLESETSK MISSILE AND SPACE COMPLEX (PKMTR)
Your satellite tracking list
Your tracking list is empty




NASA's NSSDC Master Catalog

Two Line Element Set (TLE):
1 06118U 72057B   25111.32455984  .00000003  00000-0  10996-3 0  9998
2 06118  74.0275  64.2304 0092055 131.4572 340.0395 12.59812327425944
Source of the keplerian elements: AFSPC